Location: Sternwarte ZA, Rosenfeld-Brittheim
(48.2889°N, 8.6789°E)
Time: 03:52:02
(UTC+02:00)

ISS - Pass Details

Date: 27 May 2017
Orbit: 401 x 408 km, 51.6° (Epoch: 25 June)

Event Time Altitude Azimuth Distance (km) Brightness Sun altitude
Rises 00:52:54 0° 281° (WNW) 2,339 0.3 -20.1°
Reaches altitude 10° 00:55:03 10° 288° (WNW) 1,476 -0.7 -20.2°
Maximum altitude 00:58:15 45° 3° (N) 572 -2.7 -20.2°
Drops below altitude 10° 01:01:26 10° 78° (ENE) 1,471 -0.9 -20.3°
Sets 01:03:34 0° 85° (E) 2,329 0.0 -20.3°
